Regional Weather Roundup
Issued by NWS

Home | Current Version | Previous Version | Text Only | Print | Product List | Glossary Off
Versions: 1 2 3 4 5 6 7 8 9 10 11 12 13 14 15 16 17 18 19 20 21 22 23 24 25 26 27 28 29 30 31 32 33 34 35 36 37 38 39 40 41 42 43 44 45 46 47 48 49 50

000
ASUS45 KTFX 191204
RWRMT
MONTANA HOURLY WEATHER ROUNDUP
NATIONAL WEATHER SERVICE GREAT FALLS MT
604 AM MDT SAT APR 19 2014

NOTE: "FAIR" INDICATES FEW OR NO CLOUDS BELOW 12000 FEET WITH NO
SIGNIFICANT WEATHER AND/OR OBSTRUCTIONS TO VISIBILITY.

* THESE STATIONS ARE NOT UNDER NWS QUALITY CONTROL. THEY DO NOT
   REPORT WEATHER SUCH AS PRECIPITATION OR FOG.

MTZ001>007-043-191300-
WEST OF THE DIVIDE
CITY           SKY/WX    TMP DP  RH WIND       PRES   REMARKS
KALISPELL      CLEAR     25  21  85 CALM      29.98S
MISSOULA       CLEAR     25  19  78 CALM      30.03S
BUTTE          CLEAR     19  14  81 SE3       30.00S
MULLAN PASS    CLEAR     25  19  78 S9        29.91F WCI  16
* ESSEX        N/A       26  25  96 N/A        N/A
* LINCOLN      N/A       28  19  69 NW2        N/A
* LOOKOUT PASS N/A       22  22 100 SE1        N/A
* POLSON       N/A       31  20  64 SE2        N/A
* SEELEY LAKE  N/A       20  18  92 N/A        N/A
* THOMP F APT  CLEAR     31  11  43 N2         N/A
$$

MTZ008-052>055-191300-
SOUTHWEST MONTANA
CITY           SKY/WX    TMP DP  RH WIND       PRES   REMARKS
BOZEMAN        PTCLDY    25  18  75 S6        30.00S WCI  18
DILLON         PTCLDY    30  10  43 S9        30.00S WCI  22
W YELLOWSTONE  N/A       24  22  92 N/A        N/A
* THREE FORKS  PTCLDY    27  10  49 N/A        N/A
* BOULDER HILL N/A       30   3  31 SW5        N/A   WCI  25
* MONIDA PASS  N/A       26  12  55 N/A        N/A
* RAYNOLDS PAS N/A       25  10  53 S12        N/A   WCI  14
* WHITEHALL    N/A       28  10  47 E2G8       N/A
* WISE RIVER   N/A       22  13  68 W3         N/A
$$

MTZ009>010-012-014-046-048-049-054-191300-
EAST SLOPES AND CENTRAL MONTANA
CITY           SKY/WX    TMP DP  RH WIND       PRES   REMARKS
CUT BANK       CLEAR     34  23  64 W16       29.88S WCI  24
GREAT FALLS    CLEAR     30  18  61 S5        29.92S WCI  25
HELENA         CLEAR     32  14  47 SW3       29.98S
MALMSTROM AFB  CLEAR     34  18  52 S13       29.90S WCI  25
* CONRAD       CLEAR     36  25  64 SE6        N/A   WCI  31
* DEARBORN     N/A       42  13  31 SW6        N/A
* EAST GLACIER N/A       32  20  61 SW12G18    N/A   WCI  23
* MONARCH      N/A       34   5  29 S12G17     N/A   WCI  25
* PENDROY      N/A       33  19  56 NW11       N/A   WCI  24
* ROGERS PASS  N/A       30  14  51 SE11G18    N/A   WCI  21
* SAINT MARY   N/A       35  22  59 S8G21      N/A   WCI  28
* SWEET GRASS  N/A       27  26  96 SW7        N/A   WCI  19
$$

MTZ011-013-016-021-035-040-045-047-050-051-191300-
NORTH CENTRAL MONTANA
CITY           SKY/WX    TMP DP  RH WIND       PRES   REMARKS
HAVRE          PTCLDY    34  30  85 W8        29.93R WCI  27
LEWISTOWN      CLEAR     30  16  56 SW12      29.94R WCI  20
* CHESTER      N/A       30  27  89 NW3        N/A
* DENTON       N/A       33  17  52 SW11       N/A   WCI  24
* GEYSER       N/A       31  12  45 W9         N/A   WCI  23
* JUDITH GAP   N/A       35  12  38 NW9G15     N/A   WCI  28
* LOMA         N/A       35  21  57 SW3        N/A
$$

MTZ017>020-022>027-061-062-191300-
NORTHEAST MONTANA
CITY           SKY/WX    TMP DP  RH WIND       PRES   REMARKS
GLASGOW        CLOUDY    37  34  89 W21       29.85R WCI  26
GLENDIVE       CLEAR     34  23  64 W10       29.87R WCI  26
JORDAN         CLEAR     36  23  59 W10       29.88R WCI  29
SIDNEY         CLEAR     39  32  76 W18G30    29.80S WCI  30
WOLF POINT     MOCLDY    39  34  82 W17       29.83R WCI  30
* BEAVER HILL  N/A       38  24  57 SW19G24    N/A   WCI  28
* CIRCLE       N/A       36  28  73 W5         N/A   WCI  32
* LINDSAY DVD  N/A       37  23  57 W23G30     N/A   WCI  26
* NAVAJO       N/A       37  34  89 W20G29     N/A   WCI  27
* SACO         N/A       35  31  85 W8G15      N/A   WCI  28
$$

MTZ028>042-056>058-191300-
SOUTHCENTRAL AND SOUTHEAST MONTANA
CITY           SKY/WX    TMP DP  RH WIND       PRES   REMARKS
BAKER          CLEAR     34  25  70 W13       29.89R WCI  25
BILLINGS       PTCLDY    39  12  33 N5        29.96R WCI  35
LIVINGSTON     CLEAR     37  10  33 SW17      29.95R WCI  27
MILES CITY     CLEAR     37  23  57 W9        29.92R WCI  30
* LAUREL APT   PTCLDY    36   7  30 N/A        N/A
* ROUNDUP APT  CLEAR     37  10  33 SW9        N/A   WCI  30
* HYSHAM       N/A       37  12  36 SW1G6      N/A
* LAME DEER    N/A       37  13  37 W8G13      N/A   WCI  31
* REED POINT   N/A       39  15  37 W5G10      N/A   WCI  35
* ROSCOE HILL  N/A       33  11  40 SE9        N/A   WCI  25
$$

REGIONAL REPORTS...DAKOTAS
CITY           SKY/WX    TMP DP  RH WIND       PRES   REMARKS
WILLISTON      MOCLDY    37  32  82 W14G20    29.75R WCI  28
DICKINSON      CLEAR     37  25  62 W17       29.81R WCI  27
CROSBY         CLOUDY    37  37 100 W22G28    29.69R WCI  26
TIOGA          CLOUDY    37  37 100 SW18G24   29.74R WCI  27
WATFORD CITY   MOCLDY    36  30  79 SW13      29.77R WCI  27
BISMARCK       PTCLDY    39  34  82 SW8       29.83R WCI  33
GRAND FORKS    MOCLDY    45  37  74 S16       29.73R
FARGO          MOCLDY    48  37  66 S20       29.78R
BUFFALO SD     CLEAR     32  25  75 W9        29.87R WCI  24
RAPID CITY     MOCLDY    43  19  38 NW12      29.95R
$$

REGIONAL REPORTS...WYOMING/IDAHO/WASHINGTON
CITY           SKY/WX    TMP DP  RH WIND       PRES   REMARKS
GILLETTE       CLEAR     30  21  69 SW5       30.00R WCI  25
SHERIDAN       PTCLDY    34  27  76 S3        29.98R
CODY           PTCLDY    30  23  75 CALM      29.97R
YELLOWSTONE LA PTCLDY    18  16  92 CALM      30.05S
SALMON         PTCLDY    25  18  75 CALM      30.04F
MULLAN PASS    CLEAR     25  19  78 S9        29.91S WCI  16
SPOKANE        CLEAR     34  27  76 CALM      29.93S

$$




USA.gov is the U.S. government's official web portal to all federal, state and local government web resources and services.